• In Hungary
  • List of Countries
  • For 7 days
  • Water Temperature
  • Satellite Maps
  • Weather Map
  • News
  • Weather Widgets
  • user-avatar
    Login

    Hourly Weather Horodovychi

    Today, 25 June, Monday

    Time Temperature Precipitation Wind Pressure Humidity
    00:00 +9°C° 0 mm 2 mps 734 mmHg 93%
    01:00 +9°C° 0 mm 2 mps 734 mmHg 93%
    02:00 +9°C° 0 mm 2 mps 734 mmHg 93%
    03:00 +9°C° 0 mm 2 mps 734 mmHg 94%
    04:00 +9°C° 0 mm 2 mps 734 mmHg 94%
    05:00 +8°C° 0 mm 2 mps 734 mmHg 94%
    06:00 +10°C° 0 mm 2 mps 735 mmHg 91%
    07:00 +13°C° 0 mm 2 mps 735 mmHg 88%
    08:00 +14°C° 0 mm 2 mps 735 mmHg 86%
    09:00 +15°C° 0.3 mm 2 mps 735 mmHg 83%
    10:00 +16°C° 0.3 mm 2 mps 735 mmHg 81%
    11:00 +17°C° 0.3 mm 2 mps 735 mmHg 78%
    12:00 +18°C° 0.7 mm 2 mps 735 mmHg 76%
    13:00 +20°C° 0.7 mm 1 mps 735 mmHg 73%
    14:00 +20°C° 0.7 mm 1 mps 735 mmHg 71%
    15:00 +20°C° 0.4 mm 1 mps 735 mmHg 71%
    16:00 +20°C° 0.4 mm 1 mps 735 mmHg 71%
    17:00 +20°C° 0.4 mm 1 mps 735 mmHg 71%
    18:00 +19°C° 0.8 mm 1 mps 735 mmHg 76%
    19:00 +18°C° 0.8 mm 1 mps 735 mmHg 81%
    20:00 +15°C° 0.8 mm 0 mps 735 mmHg 86%
    21:00 +14°C° 0.1 mm 0 mps 736 mmHg 87%
    22:00 +13°C° 0.1 mm 0 mps 736 mmHg 89%
    23:00 +13°C° 0.1 mm 1 mps 736 mmHg 90%

    Tomorrow, 26 June, Tuesday

    Time Temperature Precipitation Wind Pressure Humidity
    00:00 +13°C° 0 mm 1 mps 736 mmHg 90%
    01:00 +12°C° 0 mm 1 mps 736 mmHg 91%
    02:00 +12°C° 0 mm 1 mps 736 mmHg 92%
    03:00 +11°C° 0 mm 1 mps 736 mmHg 92%
    04:00 +11°C° 0 mm 1 mps 736 mmHg 92%
    05:00 +10°C° 0 mm 0 mps 735 mmHg 92%
    06:00 +12°C° 0 mm 0 mps 736 mmHg 88%
    07:00 +14°C° 0 mm 0 mps 736 mmHg 84%
    08:00 +16°C° 0 mm 0 mps 736 mmHg 81%
    09:00 +19°C° 0.1 mm 1 mps 736 mmHg 74%
    10:00 +20°C° 0.1 mm 1 mps 736 mmHg 68%
    11:00 +22°C° 0.1 mm 1 mps 736 mmHg 62%
    12:00 +22°C° 0.3 mm 1 mps 735 mmHg 61%
    13:00 +23°C° 0.3 mm 1 mps 735 mmHg 59%
    14:00 +23°C° 0.3 mm 1 mps 735 mmHg 58%
    15:00 +23°C° 0.4 mm 1 mps 735 mmHg 61%
    16:00 +22°C° 0.4 mm 1 mps 734 mmHg 63%
    17:00 +22°C° 0.4 mm 1 mps 734 mmHg 65%
    18:00 +21°C° 0.5 mm 1 mps 734 mmHg 73%
    19:00 +19°C° 0.5 mm 1 mps 734 mmHg 80%
    20:00 +15°C° 0.5 mm 0 mps 734 mmHg 87%
    21:00 +14°C° 0.1 mm 0 mps 734 mmHg 88%
    22:00 +13°C° 0.1 mm 0 mps 734 mmHg 89%
    23:00 +12°C° 0.1 mm 0 mps 734 mmHg 89%

    Day after tomorrow, 27 June, Wednesday

    Time Temperature Precipitation Wind Pressure Humidity
    00:00 +12°C° 0 mm 0 mps 734 mmHg 90%
    01:00 +12°C° 0 mm 0 mps 734 mmHg 90%
    02:00 +11°C° 0 mm 0 mps 733 mmHg 91%
    03:00 +11°C° 0 mm 0 mps 733 mmHg 92%
    04:00 +11°C° 0 mm 0 mps 733 mmHg 92%
    05:00 +11°C° 0 mm 0 mps 733 mmHg 93%
    06:00 +14°C° 0.1 mm 1 mps 734 mmHg 91%
    07:00 +15°C° 0.1 mm 1 mps 734 mmHg 89%
    08:00 +18°C° 0.1 mm 1 mps 734 mmHg 87%
    09:00 +18°C° 0.4 mm 2 mps 734 mmHg 85%
    10:00 +19°C° 0.4 mm 2 mps 734 mmHg 82%
    11:00 +20°C° 0.4 mm 2 mps 734 mmHg 79%
    12:00 +20°C° 0.6 mm 3 mps 733 mmHg 78%
    13:00 +21°C° 0.6 mm 3 mps 733 mmHg 78%
    14:00 +21°C° 0.6 mm 4 mps 733 mmHg 77%
    15:00 +21°C° 0.6 mm 4 mps 733 mmHg 78%
    16:00 +21°C° 0.6 mm 4 mps 733 mmHg 79%
    17:00 +21°C° 0.6 mm 4 mps 733 mmHg 80%
    18:00 +20°C° 0.2 mm 3 mps 732 mmHg 84%
    19:00 +19°C° 0.2 mm 3 mps 732 mmHg 87%
    20:00 +18°C° 0.2 mm 3 mps 732 mmHg 90%
    21:00 +18°C° 0.1 mm 3 mps 732 mmHg 91%
    22:00 +17°C° 0.1 mm 3 mps 731 mmHg 92%
    23:00 +16°C° 0.1 mm 3 mps 730 mmHg 93%

    28 June, Thursday

    Time Temperature Precipitation Wind Pressure Humidity
    00:00 +16°C° 1.3 mm 3 mps 730 mmHg 94%
    01:00 +16°C° 1.3 mm 3 mps 729 mmHg 96%
    02:00 +15°C° 1.3 mm 4 mps 728 mmHg 97%
    03:00 +17°C° 2.8 mm 4 mps 728 mmHg 97%
    04:00 +16°C° 2.8 mm 5 mps 727 mmHg 97%
    05:00 +17°C° 2.8 mm 6 mps 726 mmHg 97%
    06:00 +17°C° 2.7 mm 5 mps 726 mmHg 97%
    07:00 +19°C° 2.7 mm 5 mps 726 mmHg 96%
    08:00 +19°C° 2.7 mm 5 mps 725 mmHg 95%
    09:00 +20°C° 0.7 mm 5 mps 725 mmHg 93%
    10:00 +21°C° 0.7 mm 5 mps 726 mmHg 92%
    11:00 +21°C° 0.7 mm 5 mps 726 mmHg 90%
    12:00 +22°C° 0.9 mm 5 mps 726 mmHg 86%
    13:00 +22°C° 0.9 mm 4 mps 726 mmHg 83%
    14:00 +22°C° 0.9 mm 4 mps 727 mmHg 80%
    15:00 +22°C° 0.4 mm 3 mps 727 mmHg 76%
    16:00 +24°C° 0.4 mm 3 mps 727 mmHg 72%
    17:00 +24°C° 0.4 mm 2 mps 727 mmHg 68%
    18:00 +23°C° 0 mm 2 mps 727 mmHg 73%
    19:00 +22°C° 0 mm 1 mps 727 mmHg 79%
    20:00 +20°C° 0 mm 1 mps 727 mmHg 84%
    21:00 +19°C° 0 mm 1 mps 727 mmHg 86%
    22:00 +18°C° 0 mm 1 mps 727 mmHg 89%
    23:00 +16°C° 0 mm 1 mps 727 mmHg 92%

    29 June, Friday

    Time Temperature Precipitation Wind Pressure Humidity
    00:00 +16°C° 0 mm 1 mps 727 mmHg 93%
    01:00 +15°C° 0 mm 1 mps 727 mmHg 93%
    02:00 +15°C° 0 mm 1 mps 727 mmHg 94%
    03:00 +15°C° 0 mm 1 mps 727 mmHg 94%
    04:00 +15°C° 0 mm 1 mps 727 mmHg 95%
    05:00 +15°C° 0 mm 1 mps 727 mmHg 95%
    06:00 +16°C° 0 mm 1 mps 727 mmHg 89%
    07:00 +18°C° 0 mm 2 mps 727 mmHg 83%
    08:00 +20°C° 0 mm 2 mps 727 mmHg 78%
    09:00 +21°C° 0.1 mm 2 mps 727 mmHg 73%
    10:00 +23°C° 0.1 mm 2 mps 727 mmHg 69%
    11:00 +24°C° 0.1 mm 2 mps 727 mmHg 64%
    12:00 +24°C° 1.3 mm 2 mps 727 mmHg 67%
    13:00 +24°C° 1.3 mm 2 mps 726 mmHg 70%
    14:00 +24°C° 1.3 mm 2 mps 726 mmHg 72%
    15:00 +23°C° 1 mm 2 mps 726 mmHg 77%
    16:00 +21°C° 1 mm 2 mps 726 mmHg 82%
    17:00 +20°C° 1 mm 2 mps 726 mmHg 87%
    18:00 +20°C° 0.1 mm 2 mps 726 mmHg 88%
    19:00 +19°C° 0.1 mm 2 mps 726 mmHg 89%
    20:00 +19°C° 0.1 mm 2 mps 726 mmHg 90%
    21:00 +18°C° 0 mm 2 mps 726 mmHg 90%
    22:00 +17°C° 0 mm 2 mps 726 mmHg 91%
    23:00 +16°C° 0 mm 3 mps 726 mmHg 92%

    30 June, Saturday

    Time Temperature Precipitation Wind Pressure Humidity
    00:00 +16°C° 0 mm 3 mps 726 mmHg 92%
    01:00 +16°C° 0 mm 3 mps 726 mmHg 92%
    02:00 +16°C° 0 mm 3 mps 726 mmHg 92%
    03:00 +16°C° 0.2 mm 3 mps 726 mmHg 93%
    04:00 +14°C° 0.2 mm 3 mps 726 mmHg 94%
    05:00 +14°C° 0.2 mm 3 mps 726 mmHg 95%
    06:00 +16°C° 0.3 mm 3 mps 726 mmHg 93%
    07:00 +17°C° 0.3 mm 4 mps 727 mmHg 91%
    08:00 +18°C° 0.3 mm 4 mps 727 mmHg 89%
    09:00 +19°C° 0.6 mm 4 mps 727 mmHg 87%
    10:00 +19°C° 0.6 mm 4 mps 727 mmHg 85%
    11:00 +20°C° 0.6 mm 4 mps 727 mmHg 84%
    12:00 +20°C° 0.4 mm 4 mps 728 mmHg 81%
    13:00 +21°C° 0.4 mm 4 mps 728 mmHg 79%
    14:00 +21°C° 0.4 mm 4 mps 728 mmHg 77%
    15:00 +21°C° 0.3 mm 4 mps 728 mmHg 77%
    16:00 +21°C° 0.3 mm 4 mps 728 mmHg 77%
    17:00 +22°C° 0.3 mm 3 mps 728 mmHg 77%
    18:00 +21°C° 0.1 mm 3 mps 728 mmHg 81%
    19:00 +20°C° 0.1 mm 2 mps 728 mmHg 85%
    20:00 +20°C° 0.1 mm 1 mps 728 mmHg 89%
    21:00 +19°C° 0 mm 1 mps 729 mmHg 91%
    22:00 +18°C° 0 mm 1 mps 729 mmHg 92%
    23:00 +16°C° 0 mm 1 mps 729 mmHg 94%
    Show more